STARLINK-34406, 64705

Orbit data source: Space-Track

STARLINK-34406, 64705 is a payload satellite owned by SpaceX/Seattle (US) in LEO that was launched on Sat, 28 Jun 2025 UTC via an FALCON 9 launch vehicle from the Air Force Western Test Range (AFWTR). Payload-class satellites include a variety of spacecraft equipped with specific instruments for various scientific and technological missions. These include communications satellites like Starlink; space stations such as the ISS; scientific satellites like the Hubble; Earth observation satellites from companies like Planet Labs, Umbra, and HawkEye 360; GPS; miniature CubeSats for education and research; and military/defense satellites.

Not visible in the next 10 days
Identifier
64705, 2025-142K
Orbit
LEO
Last TLE update
9 hours ago
Origin
Manufacturer
SpaceX/Seattle
Mission
Operational spacecraft
Bus & Motor
STARLINK V2MO, Unknown motor
Mass
575 kg wet, ~530 kg dry
Launch date (UTC)
2025-06-28 (1 week ago)
Launch vehicle
FALCON 9
Launch site
Air Force Western Test Range (AFWTR)
Object type
Payload
Rocket body
Debris
Shape & HBR
Unknown
Radar Cross Section
RCS unknown

Expand to show TLE details & history

TLE from 9 hours ago
0 STARLINK-34406
1 64705U 25142K   25186.58335648 -.01130651  00000-0 -46085-2 0  9994
2 64705  69.9951 231.3301 0003801 277.7682  54.1152 15.88446038  2240
Epoch: 2025-07-05T14:00Z
TLE epoch observation values (Epoch: 2025-07-05T14:00:01.999Z)
Latitude
-26.4989°
Longitude
87.10452°
Altitude
314.573 km
Speed
7.719 km/s
True Right ascension
14h 43m 43s
True Declination
-26° 21' 10"
Sunlit
Object was in full shadow at epoch
Visualization orbit readout
Latitude
-66.44092°
Longitude
-27.42724°
Altitude
331.546 km
Speed
7.71 km/s
Apparent Right ascension
00h 54m 40s
Apparent Declination
-68° 44' 16"
Sunlit
Object is in daylight
Visualization observer readout
Local Sidereal Time
10:41:40
Azimuth
200.919° SSW
Elevation
-56.159°
Doppler factor
1
Orbital elements
Apogee altitude
307.046 km
Perigee altitude
301.966 km
Semi-major axis
6,682.643 km
Eccentricity
0.00038
Inclination
69.9951°
RAAN
231.3301°
Arg. of periapsis
277.7682°
True anomaly
Unknown
Mean anomaly
54.1152°
Eccentric anomaly
Unknown
Mean motion
3.97302 °/min
Orbital period
90.61 mins
BSTAR
-0.0046085
Loading maneuver chart data...
Loading SW <> Apogee altitude chart data...
Loading historical data...
Loading historical data...
Loading historical data...
Loading historical data...
Loading historical data...
Loading historical data...
Loading historical data...

STARLINK-34406 Visibility

Observer location: undefined°, undefined°

STARLINK-34406 is likely not visible in the next few days
Span
Click to sort rows by Start time (UTC) header in descending order
Start Az.
Max El. time (UTC)
Max El. Az.
Max El.
End time (UTC)
End Az.
|